Preview of NWS' New Version of Forecast
This preview is not operational and should not be used for support decisions.

Regional Weather Roundup (RWR)

Issued by National Weather Service (NWS)

                            
000
ASUS45 KBOU 220210
RWRCO 

WEATHER ROUNDUP FOR COLORADO
NATIONAL WEATHER SERVICE DENVER/BOULDER CO
800 PM MDT SUN JUL 21 2019

NOTE: "FAIR" INDICATES FEW OR NO CLOUDS BELOW 12000 FEET WITH NO
SIGNIFICANT WEATHER AND/OR OBSTRUCTIONS TO VISIBILITY.

COZ001>005-013-030-031-220300-
...NORTHWEST COLORADO...
  
CITY           SKY/WX    TMP DP  RH WIND       PRES   REMARKS
CRAIG          FAIR      83  46  27 E5        30.21R                  
HAYDEN         FAIR      81  46  29 NE5       30.26R                  
MEEKER         FAIR      82  43  25 NE6       30.21R                  
RANGELY        FAIR      91  38  15 E5        30.08S                  
RABBIT EARS PA NOT AVBL                                               
STEAMBOAT SPGS FAIR      79  47  33 CALM      30.28S                  
WALDEN         NOT AVBL                                               
$$

COZ006>008-011-220300-
...WEST CENTRAL VALLEYS...
  
CITY           SKY/WX    TMP DP  RH WIND       PRES   REMARKS
GRAND JUNCTION FAIR      95  30  10 W5        30.02S                  
MONTROSE       FAIR      90  34  13 N3        30.13S                  
EAGLE          FAIR      82  43  25 VRB3      30.24R                  
RIFLE          FAIR      90  43  19 N6        30.11R                  
DELTA          FAIR      96  26   8 CALM      30.07R                  
NUCLA          FAIR      91  19   7 CALM      30.15S                  
$$

COZ017>023-064>068-220300-
...SOUTHWEST COLORADO...
  
CITY           SKY/WX    TMP DP  RH WIND       PRES   REMARKS
DURANGO        FAIR      85  32  15 NW9       30.19S                  
CORTEZ         FAIR      90  32  12 W6        30.14S                  
PAGOSA SPRINGS FAIR      75  40  27 N3        30.30S                  
TELLURIDE      FAIR      77  21  12 CALM      30.45R                  
WOLF CREEK PAS NOT AVBL                                               
$$

COZ009-010-012-014-032>034-037-058>063-220300-
...CENTRAL COLORADO...
  
CITY           SKY/WX    TMP DP  RH WIND       PRES   REMARKS
ASPEN          FAIR      74  31  20 W7        30.32R                  
BUENA VISTA    FAIR      73  39  28 CALM      30.38S                  
COPPER MTN     FAIR      64  30  27 NW15G28   30.72S                  
BERTHOUD PASS  FAIR      43  32  65 MISG      30.78R                  
COTTONWOOD PAS NOT AVBL                                               
GUNNISON       FAIR      82  32  16 N5        30.30R                  
GRANBY         FAIR      69  50  51 SE9       30.41R                  
KREMMLING      FAIR      79  37  22 CALM      30.33R                  
LEADVILLE      LGT RAIN  59  46  62 SE9       30.52R                  
SALIDA         FAIR      77  49  37 E12G18    30.41R                  
SUNLIGHT       FAIR      63  28  27 CALM      30.64R                  
WILKERSON PASS TSTM      50  39  66 E12G29    30.70S                  
$$

COZ069>075-220300-
...SAN LUIS VALLEY/SANGRE DE CRISTO MOUNTAINS...
  
CITY           SKY/WX    TMP DP  RH WIND       PRES   REMARKS
ALAMOSA        FAIR      73  44  35 E17G28    30.30R                  
DEL NORTE      FAIR      74  45  34 E7        30.33R                  
LA VETA PASS   NOT AVBL                                               
SAGUACHE       FAIR      77  45  31 CALM      30.33R                  
$$

COZ035-036-038>040-220300-
...NORTHERN COLORADO FRONT RANGE...
  
CITY           SKY/WX    TMP DP  RH WIND       PRES   REMARKS
DENVER INTL AP MOCLDY    77  57  50 E21G26    30.28R                  
AURORA         MOCLDY    67  58  72 S12       30.31R                  
FRONT RANGE AP MOCLDY    77  57  50 SE12G23   30.31R                  
ERIE MUNI ARPT MOCLDY    77  56  48 E15G22    30.33R                  
BOULDER MUN AP FAIR      73  59  60 NE7       30.29R                  
CENTENNIAL     MOCLDY    67  58  72 SE12      30.32R                  
BROOMFIELD     MOCLDY    77  57  50 NE12      30.31R                  
FORT COLLINS   CLOUDY    74  60  61 E13       30.29R                  
LONGMONT       MOCLDY    76  60  56 NE15      30.31R                  
$$

COZ041-046-047-076>085-087-088-220300-
...PIKES PEAK/PALMER DIVIDE AND SOUTHERN FOOTHILLS...
  
CITY           SKY/WX    TMP DP  RH WIND       PRES   REMARKS
COLO. SPRINGS  MOCLDY    68  55  63 NE16G24   30.32R                  
A. F. ACADEMY  TSTM      65  55  69 NE22G28   30.33R                  
SCHRIEVER AFB  NOT AVBL                                               
CHEYENNE MTN   NOT AVBL                                               
ELLICOTT         N/A    N/A N/A N/A E17G28    30.31S THUNDER          
FALCON         LGT RAIN  61  54  77 NE17G25   30.39R                  
FORT CARSON    MOCLDY    73  61  65 E16G25    30.27R                  
LIMON          MOCLDY    61  56  83 W13       30.32R THUNDER          
MONUMENT HILL  LGT RAIN  57  54  88 SE6       30.42R                  
CANON CITY     FAIR      82  57  42 E10       30.22R                  
WALSENBURG     NOT AVBL                                               
TRINIDAD       TSTM      67  58  72 NW16G22   30.31R                  
$$

COZ042>045-048>051-090-091-220300-
...NORTHEAST COLORADO...
  
CITY           SKY/WX    TMP DP  RH WIND       PRES   REMARKS
GREELEY ARPT   MOCLDY    74  60  61 E7        30.29R                  
AKRON          FAIR      72  61  68 E13       30.27R                  
BURLINGTON     MOCLDY    73  63  70 NE10      30.24R                  
WRAY           FAIR      72  61  68 E5        30.23R                  
YUMA           FAIR      70  37  30 E9        30.24R                  
STERLING       CLOUDY    77  63  61 NE6       30.23R                  
HOLYOKE        FAIR      73  63  68 E6        30.24R                  
FORT MORGAN    NOT AVBL                                               
$$

COZ086-089-092>099-220300-
...SOUTHEAST COLORADO...
  
CITY           SKY/WX    TMP DP  RH WIND       PRES   REMARKS
PUEBLO         FAIR      82  64  54 E24G33    30.19R                  
LA JUNTA       FAIR      81  64  56 E13       30.20R                  
LAMAR          NOT AVBL                                               
SPRINGFIELD      N/A     77  61  57 E12       30.19R                  
$$